Location: Weatherford
(35.5260°N, 98.7070°W)
Time: 22:18:34
(UTC-05:00)

OPAL - Visible Passes

Search period start: 30 July 2014 00:00
Search period end: 09 August 2014 00:00
Orbit: 744 x 797 km, 100.2° (Epoch: 30 July)

Date Brightness Start Highest point End Pass type
(mag) Time Alt. Az. Time Alt. Az. Time Alt. Az.
30 Jul 10.2 03:29:03 10° E 03:31:20 13° ENE 03:33:37 10° NNE visible
30 Jul 7.4 05:05:14 13° S 05:09:39 64° WSW 05:14:34 10° NNW visible
31 Jul 8.1 04:29:42 10° SSE 04:34:30 54° ENE 04:39:19 10° N visible
31 Jul 9.1 06:11:07 10° SW 06:13:40 14° W 06:16:14 10° WNW visible
01 Aug 9.6 03:55:38 10° ESE 03:59:32 24° ENE 04:03:27 10° NNE visible
01 Aug 8.1 05:34:04 11° SSW 05:38:13 33° W 05:42:41 10° NW visible
02 Aug 10.4 03:23:42 10° ENE 03:24:46 11° ENE 03:25:49 10° NE visible
02 Aug 7.3 04:58:20 12° SSE 05:02:56 80° WSW 05:07:55 10° NNW visible
03 Aug 8.5 04:23:11 10° SE 04:27:50 43° ENE 04:32:31 10° N visible
03 Aug 8.9 06:03:37 10° SW 06:06:53 18° W 06:10:10 10° NW visible
04 Aug 9.9 03:49:25 10° ESE 03:52:55 20° ENE 03:56:26 10° NNE visible
04 Aug 7.8 05:27:09 12° S 05:31:28 41° W 05:36:09 10° NNW visible
05 Aug 7.4 04:51:24 11° SSE 04:56:14 83° ENE 05:01:13 10° NNW visible
06 Aug 8.9 04:16:43 10° SE 04:21:11 35° ENE 04:25:41 10° N visible
06 Aug 8.6 05:56:19 10° SSW 06:00:06 22° W 06:03:55 10° NW visible
07 Aug 10.1 03:43:19 10° E 03:46:19 16° ENE 03:49:19 10° NNE visible
07 Aug 7.6 05:20:12 11° S 05:24:44 52° WSW 05:29:35 10° NNW visible
08 Aug 7.7 04:44:39 10° SSE 04:49:32 67° ENE 04:54:29 10° N visible
